Simultaneous Nadir Overpasses (SNOs) Predictions

Prediction of SNOs between AQUA and METOP-C Satellite Orbit:

Table of predicted SNOs for the next 14.0 days since TLE Epoch: 9/10/2022
Index Date (AQUA) Time (AQUA) Lat,Lon (AQUA) SZA (AQUA ) Date (METOP-C) Time (METOP-C) Lat,Lon (METOP-C) SZA (METOP-C ) Distance(km) Time Diff (sec)
1 09/10/2022 16:50:10 73.41, -76.39 68.58 09/10/2022 16:49:04 73.39, -79.11 68.64 86.24 66
2 09/10/2022 17:39:48 -74.07, 89.80 110.72 09/10/2022 17:39:31 -74.09, 89.86 110.70 2.82 17
3 09/10/2022 18:29:16 74.13,-102.72 69.37 09/10/2022 18:30:11 74.12,-102.74 69.35 2.13 55
4 09/13/2022 12:23:53 74.05, -11.16 70.32 09/13/2022 12:23:11 74.04, -11.17 70.32 0.53 42
5 09/13/2022 13:13:20 -74.13, 156.29 109.58 09/13/2022 13:13:51 -74.10, 156.29 109.62 3.84 31
6 09/16/2022 07:07:55 -74.01,-112.09 108.66 09/16/2022 07:06:50 -74.03,-112.13 108.63 1.98 65
7 09/16/2022 07:57:23 74.09, 55.39 71.44 09/16/2022 07:57:29 74.09, 55.35 71.44 0.96 6
8 09/16/2022 08:46:54 -74.37,-137.65 108.25 09/16/2022 08:48:05 -74.35,-136.67 108.30 29.52 71
9 09/19/2022 01:51:48 73.42, 148.20 71.81 09/19/2022 01:50:42 73.36, 145.39 71.81 89.92 66
10 09/19/2022 02:41:26 -74.08, -45.59 107.51 09/19/2022 02:41:09 -74.08, -45.60 107.50 0.20 17
11 09/19/2022 03:30:54 74.15, 121.87 72.59 09/19/2022 03:31:48 74.13, 121.87 72.57 2.63 54
12 09/21/2022 21:25:29 74.04,-146.49 73.53 09/21/2022 21:24:48 74.04,-146.60 73.54 3.28 41
13 09/21/2022 22:14:56 -74.11, 20.97 106.38 09/21/2022 22:15:28 -74.12, 20.93 106.37 1.62 32



Historial Predications of SNOs between AQUA and METOP-C
